This demonstration page uses our WeatherBlox Daily Observations layout. Learn more.

Left ArrowRight Arrow

Hourly Observations for November 28, 2021

Temp ( °F °C ) Dew Point ( °F °C ) Humidity (%) Winds ( mph kmh ) Pressure ( in mb ) Visibility ( mi km ) Precip ( " mm )
12:56 am 00:56 Clear 32 0 25 -3.9 75 75 NW 8 13 30.29 1026 10 16 0.00 0.00
1:56 am 01:56 Clear 32 0 25 -3.9 75 75 WNW 5 7 30.27 1025 10 16 0.00 0.00
2:56 am 02:56 Clear 30 -1.1 24 -4.4 79 79 Calm 30.27 1025 10 16 0.00 0.00
3:56 am 03:56 Clear 28 -2.2 24 -4.4 85 85 W 3 6 30.28 1025 10 16 0.00 0.00
4:56 am 04:56 Clear 28 -2.2 24 -4.4 85 85 W 6 9 30.29 1026 10 16 0.00 0.00
5:56 am 05:56 Clear 25 -3.9 21 -6.1 85 85 NW 3 6 30.29 1026 10 16 0.00 0.00
6:56 am 06:56 Clear 26 -3.3 22 -5.6 84 84 Calm 30.30 1026 10 16 0.00 0.00
7:56 am 07:56 Sunny 28 -2.2 24 -4.4 85 85 W 7 11 30.31 1026 10 16 0.00 0.00
8:56 am 08:56 Sunny 33 0.6 26 -3.3 75 75 SW 7 11 30.28 1026 10 16 0.00 0.00
9:56 am 09:56 Sunny 40 4.4 28 -2.2 63 63 SW 12 19 30.27 1025 10 16 0.00 0.00
10:56 am 10:56 Sunny 45 7.2 29 -1.7 54 54 SW 16 26 30.24 1024 10 16 0.00 0.00
11:56 am 11:56 Sunny 47 8.3 28 -2.2 48 48 SW 17 28 30.20 1023 10 16 0.00 0.00
12:56 pm 12:56 Sunny 51 10.6 29 -1.7 43 43 SSW 21 33 30.15 1021 10 16 0.00 0.00
1:56 pm 13:56 Sunny 53 11.7 29 -1.7 40 40 SW 21 33 30.11 1020 10 16 0.00 0.00
2:56 pm 14:56 Sunny 54 12.2 30 -1.1 40 40 SW 16 26 30.08 1019 10 16 0.00 0.00
3:56 pm 15:56 Sunny 55 12.8 30 -1.1 38 38 SSW 13 20 30.07 1018 10 16 0.00 0.00
4:56 pm 16:56 Sunny 50 10 30 -1.1 46 46 SSW 6 9 30.08 1019 10 16 0.00 0.00
5:56 pm 17:56 Clear 46 7.8 29 -1.7 51 51 S 5 7 30.09 1019 10 16 0.00 0.00
6:56 pm 18:56 Clear 42 5.6 28 -2.2 58 58 SSW 9 15 30.08 1019 10 16 0.00 0.00
7:56 pm 19:56 Clear 43 6.1 29 -1.7 58 58 SSW 9 15 30.05 1018 10 16 0.00 0.00
8:56 pm 20:56 Clear 45 7.2 29 -1.7 54 54 SW 8 13 30.06 1018 10 16 0.00 0.00
9:56 pm 21:56 Clear 43 6.1 29 -1.7 58 58 SW 7 11 30.04 1017 10 16 0.00 0.00
10:56 pm 22:56 Clear 42 5.6 29 -1.7 60 60 WSW 7 11 30.03 1017 10 16 0.00 0.00
11:56 pm 23:56 Clear 40 4.4 28 -2.2 63 63 WSW 6 9 30.02 1017 10 16 0.00 0.00

Powered by AerisWeather